Location: Lugrin
(46.4033°N, 6.6674°E)
Time: 16:01:04
(UTC+00:00)

Okean 2 Rocket - Pass Details

Date: 18 September 2020
Orbit: 616 x 642 km, 82.5° (Epoch: 30 October)

Event Time Altitude Azimuth Distance (km) Brightness Sun altitude
Rises 19:40:20 0° 204° (SSW) 2,933 6.5 -21.1°
Reaches altitude 10° 19:42:39 10° 210° (SSW) 2,027 5.7 -21.5°
Maximum altitude 19:46:58 45° 284° (WNW) 875 4.2 -22.1°
Drops below altitude 10° 19:51:18 10° 357° (N) 2,030 6.1 -22.8°
Sets 19:53:38 0° 4° (N) 2,938 6.9 -23.1°
